Showing default

CONNECTA IOT-16, 67390

Orbit data source: Space-Track

CONNECTA IOT-16, 67390 is a payload satellite owned by Plan-S (TR) in SSO that was launched on Sun, 11 Jan 2026 UTC via an FALCON 9 launch vehicle from the Air Force Western Test Range (AFWTR). Payload-class satellites include a variety of spacecraft equipped with specific instruments for various scientific and technological missions. These include communications satellites like Starlink; space stations such as the ISS; scientific satellites like the Hubble; Earth observation satellites from companies like Planet Labs, Umbra, and HawkEye 360; GPS; miniature CubeSats for education and research; and military/defense satellites.

Loading next visibility...
Identifier
67390, 2026-004AD
Orbit
SSO
Country
Flag of TRTR / TURK
Related business
Manufacturer
Plan-S
Mission
Operational spacecraft
Bus & Motor
CUBESAT 6U, Unknown motor
Mass
10 kg wet, 10 kg dry
Launch date (UTC)
2026-01-11 (3 months ago)
Launch vehicle
FALCON 9
Launch site
Air Force Western Test Range (AFWTR)
Object type
Payload
Rocket body
Debris
Shape & HBR
Unknown shape, 2.2 m
Radar Cross Section
RCS unknown

Expand to show TLE details & history
Last TLE update: 7 hours ago

TLE from 7 hours ago
0 CONNECTA IOT-16
1 67390U 26004AD  26095.25500922  .00004445  00000-0  22769-3 0  9990
2 67390  97.4597  95.2868 0002403 203.1975 156.9150 15.17101089 12689
Epoch: 2026-04-05T06:07Z
TLE epoch observation values (Epoch: 2026-04-05T06:07:12.796Z)
Latitude
-0.00006°
Longitude
169.92043°
Altitude
519.216 km
Speed
7.603 km/s
True Right ascension
06h 21m 08s
True Declination
0° 00' 00"
Sunlit
Object was in daylight at epoch
Visualization orbit readout
Latitude
Unknown
Longitude
Unknown
Altitude
Unknown
Speed
Unknown
Apparent Right ascension
Unknown
Apparent Declination
Unknown
Sunlit
N/A
Visualization observer readout
Local Sidereal Time
19:25:07
Azimuth
Unknown
Elevation
Unknown
Doppler factor
Unknown
Orbital elements
Apogee altitude
513.235 km
Perigee altitude
509.924 km
Semi-major axis
6,889.716 km
Eccentricity
0.00024
Inclination
97.4597°
RAAN
95.2868°
Arg. of periapsis
203.1975°
True anomaly
156.92579°
Mean anomaly
156.915°
Eccentric anomaly
156.9204°
Mean motion
3.79526 °/min
Orbital period
94.86 mins
BSTAR
0.00022769
Loading maneuver chart data...
Computing Atmospheric mass density...
Loading historical data...
Loading historical data...
Loading historical data...
Loading historical data...
Loading historical data...
Loading historical data...
Loading historical data...

Documentation

Showing up to 5 results
|